Regional Weather Roundup
Issued by NWS

Home | Current Version | Previous Version | Graphics & Text | Print | Product List | Glossary On
Versions: 1 2 3 4 5 6 7 8 9 10 11 12 13 14 15 16 17 18 19 20 21 22 23 24 25 26 27 28 29 30 31 32 33 34 35 36 37 38 39 40 41 42 43 44 45 46 47 48 49 50
000
ASUS45 KABQ 290401
RWRNM
NEW MEXICO REGIONAL WEATHER ROUNDUP
NATIONAL WEATHER SERVICE ALBUQUERQUE NM
1000 PM MDT THU APR 28 2016

NOTE: "FAIR" MEANS FEW OR NO CLOUDS BELOW 12,000 FEET AGL WITH NO
       SIGNIFICANT WEATHER OR OBSTRUCTIONS TO VISION.

      THIS PRODUCT IS RELEASED AS TWO VERSIONS.  ONE VERSION NEAR
      THE TOP OF THE HOUR CONTAINING PRELIMINARY DATA FROM ALBUQUERQUE
      AND OTHER STATIONS.  A FINAL VERSION WITH ADDITIONAL DATA IS
      ISSUED ABOUT 10 MINUTES AFTER THE HOUR.

NMZ501-503-504-510>518-290500-
NORTHWEST PLATEAU/NORTHCENTRAL MOUNTAINS

CITY           SKY/WX    TMP DP  RH WIND       PRES   REMARKS
FARMINGTON     CLOUDY    50  28  42 N3        29.80R
SANTA FE       FAIR      55   9  16 SE16      29.77R
TAOS           MOCLDY    48  28  46 SE21G28   29.84S
ANGEL FIRE     DRIZZLE   40  34  80 SE9       29.97R WCI  33

$$
NMZ402-403-502-505>509-290500-
WESTCENTRAL MOUNTAINS/SOUTHWEST MOUNTAINS

CITY           SKY/WX    TMP DP  RH WIND       PRES   REMARKS
GALLUP         CLOUDY    48  10  21 SW8       29.87R
GRANTS         CLOUDY    52  21  30 W23G37    29.86R
SILVER CITY      N/A     55  27  33 NW20      29.83R

$$
NMZ407-409-411-412-290500-
SOUTHERN DESERTS

CITY           SKY/WX    TMP DP  RH WIND       PRES   REMARKS
LORDSBURG      CLOUDY    59  32  36 NW17G26   29.80R
DEMING         FAIR      64  24  21 W13G23    29.76R
HOLLOMAN AFB   FAIR      64  20  18 SW10      29.70R
ALAMOGORDO     FAIR      59  21  23 S9        29.72R
T OR C         FAIR      67  12  12 SW21      29.73R

$$
NMZ519>523-290500-
CENTRAL VALLEYS/CENTRAL HIGHLANDS

CITY           SKY/WX    TMP DP  RH WIND       PRES   REMARKS
ALBUQUERQUE    MOCLDY    62   9  12 S8        29.74R
DOUBLE EAGLE   MOCLDY    55  12  18 S7        29.77R
CLINES CORNERS MOCLDY    48   8  19 E12       29.85R
BELEN          FAIR      61   6  11 S6        29.74R
SOCORRO        NOT AVBL

$$
NMZ524>526-539-540-290500-
SOUTHCENTRAL MOUNTAINS

CITY           SKY/WX    TMP DP  RH WIND       PRES   REMARKS
RUIDOSO        NOT AVBL

$$
NMZ527>531-290500-
NORTHEAST HIGHLANDS/NORTHEAST PLAINS

CITY           SKY/WX    TMP DP  RH WIND       PRES   REMARKS
LAS VEGAS      CLOUDY    47  38  71 NE15      29.92R
RATON          LGT RAIN  37  34  89 N14       29.94R WCI  28
CLAYTON        TSTM      47  42  83 NE20      29.94R

$$
NMZ532>537-290500-
EASTCENTRAL PLAINS

CITY           SKY/WX    TMP DP  RH WIND       PRES   REMARKS
TUCUMCARI      FAIR      55  49  80 E17G26    29.76R
CANNON AFB     FAIR      60  52  73 E16       29.75R
CLOVIS AIRPORT FAIR      57  48  72 E14       29.78R

$$
NMZ028-029-538-290500-
SOUTHEAST PLAINS

CITY           SKY/WX    TMP DP  RH WIND       PRES   REMARKS
ROSWELL        FAIR      63  17  17 W7        29.66S
ARTESIA        FAIR      59  16  18 E7        29.67S HAZE
CARLSBAD       FAIR      67  18  15 E6        29.66R
HOBBS          FAIR      72  50  46 SE14G21   29.72R


$$




USA.gov is the U.S. government's official web portal to all federal, state and local government web resources and services.